This demonstration page uses our WeatherBlox Daily Observations layout. Learn more.

Left ArrowRight Arrow

40.92945, -100.16068

Hourly Observations for September 10, 2017

Temp ( °F °C ) Dew Point ( °F °C ) Humidity (%) Winds ( mph kmh ) Pressure ( in mb ) Visibility ( mi km ) Precip ( " mm )
12:15 am 00:15 Clear 70 21.1 51 10.5 51 51 SSE 16 26 29.97 1015 10 16 0.00 0.00
12:35 am 00:35 Clear 69 20.6 51 10.5 53 53 SSE 17 28 29.97 1015 10 16 0.00 0.00
12:55 am 00:55 Clear 68 20.1 51 10.5 54 54 SSE 15 24 30.00 1016 10 16 0.00 0.00
1:15 am 01:15 Clear 68 20.2 51 10.4 53 53 SSE 17 28 30.00 1016 10 16 0.00 0.00
1:35 am 01:35 Clear 68 20 51 10.4 54 54 SSE 17 28 30.00 1016 10 16 0.00 0.00
1:55 am 01:55 Clear 68 19.8 51 10.4 55 55 S 17 28 30.00 1016 10 16 0.00 0.00
2:15 am 02:15 Clear 68 20 51 10.5 54 54 SSE 16 26 30.00 1016 10 16 0.00 0.00
2:35 am 02:35 Clear 68 19.8 51 10.5 55 55 SSE 16 26 30.00 1016 10 16 0.00 0.00
2:55 am 02:55 Clear 68 20 51 10.5 54 54 S 18 30 30.00 1016 10 16 0.00 0.00
3:15 am 03:15 Clear 68 19.8 51 10.5 55 55 S 17 28 30.00 1016 10 16 0.00 0.00
3:35 am 03:35 Clear 67 19.7 51 10.7 56 56 S 20 31 30.00 1016 10 16 0.00 0.00
3:55 am 03:55 Clear 67 19.5 51 10.7 57 57 S 20 31 30.00 1016 10 16 0.00 0.00
4:15 am 04:15 Clear 67 19.3 51 10.7 58 58 S 21 33 30.00 1016 10 16 0.00 0.00
4:35 am 04:35 Clear 66 19.1 51 10.7 58 58 S 15 24 30.00 1016 10 16 0.00 0.00
4:55 am 04:55 Clear 66 19 51 10.7 59 59 S 16 26 30.00 1016 10 16 0.00 0.00
5:15 am 05:15 Clear 66 19 51 10.7 59 59 S 15 24 30.00 1016 10 16 0.00 0.00
5:35 am 05:35 Clear 66 18.7 51 10.7 60 60 S 16 26 30.00 1016 10 16 0.00 0.00
5:55 am 05:55 Clear 65 18.6 51 10.7 60 60 S 16 26 30.00 1016 10 16 0.00 0.00
6:15 am 06:15 Clear with Nearby Thunderstorms 65 18.3 51 10.7 61 61 S 15 24 30.00 1016 10 16 0.00 0.00
6:35 am 06:35 Clear 65 18.2 51 10.8 62 62 S 15 24 30.00 1016 10 16 0.00 0.00
6:55 am 06:55 Clear 65 18.5 51 10.7 61 61 S 15 24 30.03 1017 10 16 0.00 0.00
7:15 am 07:15 Clear 65 18.3 51 10.8 62 62 S 13 20 30.03 1017 10 16 0.00 0.00
7:35 am 07:35 Sunny 65 18.3 52 10.9 62 62 S 13 20 30.03 1017 10 16 0.00 0.00
7:55 am 07:55 Sunny 65 18.1 52 11.1 64 64 SSE 13 20 30.03 1017 10 16 0.00 0.00
8:15 am 08:15 Sunny 65 18.2 52 11.3 64 64 SSE 13 20 30.03 1017 10 16 0.00 0.00
8:35 am 08:35 Sunny 65 18.5 53 11.5 64 64 SSE 12 19 30.06 1018 10 16 0.00 0.00
8:55 am 08:55 Sunny 66 19 53 11.8 63 63 SSE 14 22 30.06 1018 10 16 0.00 0.00
9:15 am 09:15 Sunny 67 19.6 53 11.9 61 61 S 15 24 30.06 1018 10 16 0.00 0.00
9:35 am 09:35 Sunny 68 20.2 54 12.1 60 60 S 20 31 30.06 1018 10 16 0.00 0.00
9:55 am 09:55 Sunny 70 21 54 12.2 57 57 S 16 26 30.06 1018 10 16 0.00 0.00
10:15 am 10:15 Sunny 71 21.9 55 12.5 55 55 S 17 28 30.03 1017 10 16 0.00 0.00
10:35 am 10:35 Sunny 72 22.4 54 12.4 53 53 S 20 31 30.03 1017 10 16 0.00 0.00
10:55 am 10:55 Sunny 73 23 55 12.6 52 52 S 20 31 30.03 1017 10 16 0.00 0.00
11:15 am 11:15 Sunny 75 23.8 55 13 51 51 SSE 18 30 30.03 1017 10 16 0.00 0.00
11:35 am 11:35 Sunny 76 24.4 55 13 49 49 S 18 30 30.03 1017 10 16 0.00 0.00
11:55 am 11:55 Sunny 77 25 55 12.7 46 46 SSE 22 35 30.00 1016 10 16 0.00 0.00
12:15 pm 12:15 Sunny 79 26 56 13.4 46 46 S 18 30 29.97 1015 10 16 0.00 0.00
12:35 pm 12:35 Sunny 80 26.6 55 12.7 42 42 S 21 33 29.97 1015 10 16 0.00 0.00
12:55 pm 12:55 Sunny 81 27 55 12.6 41 41 S 18 30 29.97 1015 10 16 0.00 0.00
1:15 pm 13:15 Sunny 82 27.6 55 12.6 40 40 S 20 31 29.97 1015 10 16 0.00 0.00
1:35 pm 13:35 Sunny 82 28 55 12.6 39 39 S 22 35 29.94 1014 10 16 0.00 0.00
1:55 pm 13:55 Sunny 83 28.3 54 12.3 37 37 S 21 33 29.94 1014 10 16 0.00 0.00
2:15 pm 14:15 Sunny 84 29 55 12.6 36 36 S 22 35 29.94 1014 10 16 0.00 0.00
2:35 pm 14:35 Sunny 85 29.4 55 12.8 36 36 S 24 39 29.94 1014 10 16 0.00 0.00
2:55 pm 14:55 Sunny 85 29.5 55 12.8 36 36 SSE 22 35 29.91 1013 10 16 0.00 0.00
3:15 pm 15:15 Sunny 85 29.5 55 12.7 36 36 SSE 20 31 29.91 1013 10 16 0.00 0.00
3:35 pm 15:35 Sunny 86 30 55 12.7 35 35 S 20 31 29.91 1013 10 16 0.00 0.00
3:55 pm 15:55 Sunny 86 30.2 55 12.8 34 34 S 18 30 29.91 1013 10 16 0.00 0.00
4:15 pm 16:15 Sunny 86 30.2 54 12.2 33 33 S 25 41 29.91 1013 10 16 0.00 0.00
4:35 pm 16:35 Sunny 87 30.3 54 12.2 33 33 S 18 30 29.91 1013 10 16 0.00 0.00
4:55 pm 16:55 Sunny 87 30.3 54 12 32 32 S 21 33 29.88 1012 10 16 0.00 0.00
5:15 pm 17:15 Sunny 86 30.1 54 12 33 33 S 21 33 29.88 1012 10 16 0.00 0.00
5:35 pm 17:35 Sunny 86 30 55 12.8 35 35 SSE 15 24 29.88 1012 10 16 0.00 0.00
5:55 pm 17:55 Sunny 85 29.7 55 12.6 35 35 S 16 26 29.88 1012 10 16 0.00 0.00
6:15 pm 18:15 Sunny 85 29.3 55 13 37 37 S 15 24 29.91 1013 10 16 0.00 0.00
6:35 pm 18:35 Sunny 83 28.1 56 13.6 41 41 SSE 10 17 29.91 1013 10 16 0.00 0.00
6:55 pm 18:55 Sunny 82 27.7 57 13.8 42 42 SSE 13 20 29.88 1012 10 16 0.00 0.00
7:15 pm 19:15 Sunny 81 27.3 56 13.5 43 43 SSE 12 19 29.88 1012 10 16 0.00 0.00
7:35 pm 19:35 Sunny 79 26.1 56 13.6 46 46 SSE 9 15 29.94 1014 10 16 0.00 0.00
7:55 pm 19:55 Sunny 77 25.1 56 13.5 49 49 SSE 10 17 29.94 1014 10 16 0.00 0.00
8:15 pm 20:15 Clear 76 24.3 56 13.5 51 51 SSE 9 15 29.94 1014 10 16 0.00 0.00
8:35 pm 20:35 Clear 75 23.9 56 13.3 52 52 SE 9 15 29.97 1015 10 16 0.00 0.00
8:55 pm 20:55 Clear 74 23.5 56 13.4 53 53 SE 7 11 29.97 1015 10 16 0.00 0.00
9:15 pm 21:15 Clear 72 22.1 56 13.6 59 59 SE 7 11 30.00 1016 10 16 0.00 0.00
9:35 pm 21:35 Clear 72 22.2 56 13.3 57 57 SE 7 11 30.00 1016 10 16 0.00 0.00
9:55 pm 21:55 Clear 71 21.7 56 13.2 59 59 SSE 8 13 30.00 1016 10 16 0.00 0.00
10:15 pm 22:15 Clear 70 21.2 55 13 60 60 SSE 9 15 30.00 1016 10 16 0.00 0.00
10:35 pm 22:35 Clear 70 21.1 55 13 60 60 SSE 9 15 30.00 1016 10 16 0.00 0.00
10:55 pm 22:55 Clear 70 20.9 55 12.7 60 60 SSE 9 15 30.00 1016 10 16 0.00 0.00
11:15 pm 23:15 Clear 71 21.5 54 12.2 56 56 S 10 17 30.00 1016 10 16 0.00 0.00
11:35 pm 23:35 Clear 72 22 53 11.8 52 52 S 14 22 30.00 1016 10 16 0.00 0.00
11:55 pm 23:55 Clear 71 21.7 53 11.6 53 53 S 15 24 30.00 1016 10 16 0.00 0.00

Powered by AerisWeather